,,,PA_Meas_PMT16A,,PR_Meas_QMR101_102,,RH_Meas_QMH101,,SR_Meas_QMS101,,TA_Meas_QMH101,,GenWind,,GenWind,
date,time,status,PA,status,PR,status,RH,status,SR,status,TA,status,DirAvg,status,SpdAvg,
2009-10-28, 00:00:05,VALID,1003.34,VALID,0,VALID,83.5134,VALID,0,VALID,26.3713,VALID,351,VALID,0.542578,
2009-10-28, 00:01:05,VALID,1003.3,VALID,0,VALID,83.5439,VALID,0,VALID,26.3713,VALID,333,VALID,0.76875,
2009-10-28, 00:02:05,VALID,1003.31,VALID,0,VALID,83.5286,VALID,0,VALID,26.3907,VALID,339,VALID,0.304688,
2009-10-28, 00:03:05,VALID,1003.28,VALID,0,VALID,83.6202,VALID,0,VALID,26.3713,VALID,341,VALID,0.456641,
2009-10-28, 00:04:05,VALID,1003.28,VALID,0,VALID,83.9024,VALID,0,VALID,26.3907,VALID,341,VALID,0.0699219,
2009-10-28, 00:05:05,VALID,1003.29,VALID,0,VALID,84.0245,VALID,0,VALID,26.3323,VALID,344,VALID,0.423438,
2009-10-28, 00:06:05,VALID,1003.25,VALID,0,VALID,84.1771,VALID,0,VALID,26.3128,VALID,357,VALID,0.075,
2009-10-28, 00:07:05,VALID,1003.2,VALID,0,VALID,84.4441,VALID,0,VALID,26.3128,VALID,357,VALID,0,
2009-10-28, 00:08:05,VALID,1003.2,VALID,0,VALID,84.4899,VALID,0,VALID,26.2544,VALID,357,VALID,0,
2009-10-28, 00:09:05,VALID,1003.22,VALID,0,VALID,84.2991,VALID,0,VALID,26.2349,VALID,357,VALID,0.103906,
2009-10-28, 00:10:05,VALID,1003.21,VALID,0,VALID,84.5051,VALID,0,VALID,26.2544,VALID,318,VALID,0.419141,
2009-10-28, 00:11:05,VALID,1003.2,VALID,0,VALID,84.2762,VALID,0,VALID,26.2739,VALID,5,VALID,0.815625,
2009-10-28, 00:12:05,VALID,1003.18,VALID,0,VALID,84.0703,VALID,0,VALID,26.3538,VALID,349,VALID,0.594922,
2009-10-28, 00:13:05,VALID,1003.18,VALID,0,VALID,83.8948,VALID,0,VALID,26.3713,VALID,335,VALID,0.766016,
2009-10-28, 00:14:05,VALID,1003.17,VALID,0,VALID,83.7041,VALID,0,VALID,26.4102,VALID,331,VALID,0.574609,
2009-10-28, 00:15:05,VALID,1003.18,VALID,0,VALID,83.727,VALID,0,VALID,26.4277,VALID,322,VALID,0.499219,
2009-10-28, 00:16:05,VALID,1003.18,VALID,0,VALID,83.7422,VALID,0,VALID,26.4707,VALID,349,VALID,0.190234,
2009-10-28, 00:17:05,VALID,1003.14,VALID,0,VALID,83.6659,VALID,0,VALID,26.4707,VALID,17,VALID,0.629687,
2009-10-28, 00:18:05,VALID,1003.15,VALID,0,VALID,83.6049,VALID,0,VALID,26.4492,VALID,3,VALID,1.11523,
2009-10-28, 00:19:05,VALID,1003.14,VALID,0,VALID,83.521,VALID,0,VALID,26.4881,VALID,332,VALID,0.844531,
2009-10-28, 00:20:05,VALID,1003.13,VALID,0,VALID,83.4752,VALID,0,VALID,26.5076,VALID,351,VALID,0.148047,
2009-10-28, 00:21:05,VALID,1003.11,VALID,0,VALID,83.4676,VALID,0,VALID,26.5271,VALID,308,VALID,0.638672,
2009-10-28, 00:22:05,VALID,1003.1,VALID,0,VALID,83.3608,VALID,0,VALID,26.5446,VALID,349,VALID,0.409375,
2009-10-28, 00:23:05,VALID,1003.06,VALID,0,VALID,83.4142,VALID,0,VALID,26.5661,VALID,348,VALID,0.292188,
2009-10-28, 00:24:04,VALID,1003.05,VALID,0,VALID,83.4752,VALID,0,VALID,26.5681,VALID,347,VALID,1.06484,
2009-10-28, 00:25:04,VALID,1003.04,VALID,0,VALID,83.5134,VALID,0,VALID,26.5661,VALID,315,VALID,0.250781,
2009-10-28, 00:26:04,VALID,1003.01,VALID,0,VALID,83.6202,VALID,0,VALID,26.5466,VALID,323,VALID,0.441016,
2009-10-28, 00:27:04,VALID,1003,VALID,0,VALID,83.6888,VALID,0,VALID,26.5681,VALID,326,VALID,0.3,
2009-10-28, 00:28:04,VALID,1002.99,VALID,0,VALID,83.8643,VALID,0,VALID,26.5466,VALID,352,VALID,0.424609,
2009-10-28, 00:29:04,VALID,1002.97,VALID,0,VALID,84.0397,VALID,0,VALID,26.5076,VALID,352,VALID,0.461719,
2009-10-28, 00:30:04,VALID,1002.98,VALID,0,VALID,84.2152,VALID,0,VALID,26.4472,VALID,354,VALID,0.791016,
2009-10-28, 00:31:04,VALID,1003.02,VALID,0,VALID,84.467,VALID,0,VALID,26.4277,VALID,358,VALID,0.519141,
2009-10-28, 00:32:04,VALID,1003.02,VALID,0,VALID,84.5509,VALID,0,VALID,26.4082,VALID,305,VALID,0.408984,
2009-10-28, 00:33:04,VALID,1003.02,VALID,0,VALID,84.6653,VALID,0,VALID,26.3887,VALID,8,VALID,0.104687,
2009-10-28, 00:34:04,VALID,1003.01,VALID,0,VALID,84.6272,VALID,0,VALID,26.3887,VALID,307,VALID,0.926953,
2009-10-28, 00:35:04,VALID,1003.01,VALID,0,VALID,84.6577,VALID,0.100563,VALID,26.4297,VALID,354,VALID,0.623438,
2009-10-28, 00:36:04,VALID,1003,VALID,0,VALID,84.6043,VALID,0,VALID,26.4297,VALID,19,VALID,0.494922,
2009-10-28, 00:37:04,VALID,1003,VALID,0,VALID,84.7035,VALID,0,VALID,26.4297,VALID,4,VALID,0.445703,
2009-10-28, 00:38:04,VALID,1003.01,VALID,0,VALID,84.7569,VALID,0.100563,VALID,26.3887,VALID,318,VALID,0.167187,
2009-10-28, 00:39:04,VALID,1002.99,VALID,0,VALID,84.8255,VALID,0,VALID,26.3887,VALID,329,VALID,0.7,
2009-10-28, 00:40:04,VALID,1002.98,VALID,0,VALID,84.8789,VALID,0,VALID,26.4102,VALID,323,VALID,0.485156,
2009-10-28, 00:41:04,VALID,1002.97,VALID,0,VALID,84.9094,VALID,0,VALID,26.4082,VALID,288,VALID,0.137109,
2009-10-28, 00:42:04,VALID,1002.93,VALID,0,VALID,84.9705,VALID,0,VALID,26.4102,VALID,342,VALID,0.727344,
2009-10-28, 00:43:04,VALID,1002.93,VALID,0,VALID,84.9857,VALID,0,VALID,26.4297,VALID,323,VALID,0.206641,
2009-10-28, 00:44:04,VALID,1002.92,VALID,0,VALID,85.123,VALID,0.100563,VALID,26.3887,VALID,323,VALID,0.00117188,
2009-10-28, 00:45:04,VALID,1002.91,VALID,0,VALID,85.2299,VALID,0,VALID,26.4122,VALID,323,VALID,0.250781,
2009-10-28, 00:46:04,VALID,1002.95,VALID,0,VALID,85.3138,VALID,0,VALID,26.3713,VALID,329,VALID,0.200781,
2009-10-28, 00:47:04,VALID,1002.94,VALID,0,VALID,85.3214,VALID,0,VALID,26.3713,VALID,293,VALID,0.208984,
2009-10-28, 00:48:04,VALID,1002.93,VALID,0,VALID,85.3748,VALID,0,VALID,26.3733,VALID,341,VALID,0.337109,
2009-10-28, 00:49:04,VALID,1002.9,VALID,0,VALID,85.4816,VALID,0,VALID,26.3518,VALID,350,VALID,0.535156,
2009-10-28, 00:50:04,VALID,1002.91,VALID,0,VALID,85.4892,VALID,0,VALID,26.3518,VALID,356,VALID,0,
2009-10-28, 00:51:04,VALID,1002.91,VALID,0,VALID,85.6418,VALID,0,VALID,26.3518,VALID,333,VALID,0.181641,
2009-10-28, 00:52:04,VALID,1002.87,VALID,0,VALID,85.6037,VALID,0,VALID,26.3108,VALID,297,VALID,0.508984,
2009-10-28, 00:53:04,VALID,1002.84,VALID,0,VALID,85.5198,VALID,0,VALID,26.3323,VALID,291,VALID,0.180859,
2009-10-28, 00:54:04,VALID,1002.88,VALID,0,VALID,85.4969,VALID,0,VALID,26.3323,VALID,291,VALID,0.0105469,
2009-10-28, 00:55:04,VALID,1002.84,VALID,0,VALID,85.5732,VALID,0,VALID,26.3323,VALID,291,VALID,0.217969,
2009-10-28, 00:56:04,VALID,1002.81,VALID,0,VALID,85.6342,VALID,0,VALID,26.3128,VALID,309,VALID,0.466797,
2009-10-28, 00:57:04,VALID,1002.8,VALID,0,VALID,85.741,VALID,0,VALID,26.3128,VALID,317,VALID,0.0730469,
2009-10-28, 00:58:04,VALID,1002.76,VALID,0,VALID,85.8402,VALID,0,VALID,26.2719,VALID,303,VALID,0.270703,
2009-10-28, 00:59:04,VALID,1002.73,VALID,0,VALID,85.802,VALID,0,VALID,26.2739,VALID,308,VALID,0.244922,
2009-10-28, 01:00:04,VALID,1002.74,VALID,0,VALID,85.8859,VALID,0,VALID,26.2524,VALID,308,VALID,0,
2009-10-28, 01:01:04,VALID,1002.76,VALID,0,VALID,85.9317,VALID,0,VALID,26.2739,VALID,286,VALID,0.715234,
2009-10-28, 01:02:04,VALID,1002.74,VALID,0,VALID,85.947,VALID,0,VALID,26.2739,VALID,289,VALID,0.538281,
2009-10-28, 01:03:04,VALID,1002.72,VALID,0,VALID,85.7257,VALID,0,VALID,26.2953,VALID,282,VALID,0.602734,
2009-10-28, 01:04:04,VALID,1002.69,VALID,0,VALID,85.6494,VALID,0,VALID,26.2913,VALID,350,VALID,1.02852,
2009-10-28, 01:05:04,VALID,1002.72,VALID,0,VALID,85.6494,VALID,0,VALID,26.3323,VALID,290,VALID,0.730469,
2009-10-28, 01:06:04,VALID,1002.72,VALID,0,VALID,85.5655,VALID,0,VALID,26.3518,VALID,287,VALID,0.184375,
2009-10-28, 01:07:04,VALID,1002.73,VALID,0,VALID,85.596,VALID,0,VALID,26.3303,VALID,287,VALID,0.000390625,
2009-10-28, 01:08:04,VALID,1002.73,VALID,0,VALID,85.68,VALID,0,VALID,26.3128,VALID,291,VALID,0.199609,
2009-10-28, 01:09:04,VALID,1002.73,VALID,0,VALID,85.8325,VALID,0,VALID,26.3128,VALID,317,VALID,0.108203,
2009-10-28, 01:10:04,VALID,1002.73,VALID,0,VALID,85.7944,VALID,0,VALID,26.3128,VALID,283,VALID,0.79375,
2009-10-28, 01:11:04,VALID,1002.71,VALID,0,VALID,85.8707,VALID,0,VALID,26.3128,VALID,317,VALID,0.0121094,
2009-10-28, 01:12:04,VALID,1002.69,VALID,0,VALID,85.9241,VALID,0,VALID,26.2739,VALID,295,VALID,0.65625,
2009-10-28, 01:13:04,VALID,1002.69,VALID,0,VALID,85.9012,VALID,0,VALID,26.2933,VALID,298,VALID,0.430859,
2009-10-28, 01:14:04,VALID,1002.66,VALID,0,VALID,85.8478,VALID,0,VALID,26.2933,VALID,275,VALID,0.334766,
2009-10-28, 01:15:04,VALID,1002.69,VALID,0,VALID,85.8936,VALID,0,VALID,26.2913,VALID,287,VALID,0.410156,
2009-10-28, 01:16:04,VALID,1002.66,VALID,0,VALID,85.9546,VALID,0,VALID,26.3128,VALID,280,VALID,0.028125,
2009-10-28, 01:17:04,VALID,1002.65,VALID,0,VALID,85.9393,VALID,0,VALID,26.3128,VALID,292,VALID,0.915234,
2009-10-28, 01:18:04,VALID,1002.63,VALID,0,VALID,85.7715,VALID,0,VALID,26.3323,VALID,284,VALID,1.15703,
2009-10-28, 01:19:04,VALID,1002.69,VALID,0,VALID,85.4892,VALID,0,VALID,26.3907,VALID,279,VALID,1.08125,
2009-10-28, 01:20:04,VALID,1002.64,VALID,0,VALID,85.2375,VALID,0,VALID,26.4297,VALID,288,VALID,1.23516,
2009-10-28, 01:21:04,VALID,1002.66,VALID,0,VALID,85.1002,VALID,0.100563,VALID,26.4472,VALID,287,VALID,0.683594,
2009-10-28, 01:22:04,VALID,1002.64,VALID,0,VALID,84.9705,VALID,0,VALID,26.4881,VALID,288,VALID,0.633203,
2009-10-28, 01:23:04,VALID,1002.62,VALID,0,VALID,84.9552,VALID,0,VALID,26.5076,VALID,288,VALID,0,
2009-10-28, 01:24:04,VALID,1002.6,VALID,0,VALID,84.9781,VALID,0,VALID,26.4687,VALID,287,VALID,0.683203,
2009-10-28, 01:25:04,VALID,1002.57,VALID,0,VALID,85.0315,VALID,0,VALID,26.4277,VALID,288,VALID,0.507031,
2009-10-28, 01:26:04,VALID,1002.57,VALID,0,VALID,85.062,VALID,0,VALID,26.4492,VALID,288,VALID,0.114453,
2009-10-28, 01:27:04,VALID,1002.56,VALID,0,VALID,85.1841,VALID,0,VALID,26.4297,VALID,288,VALID,0.000390625,
2009-10-28, 01:28:04,VALID,1002.53,VALID,0,VALID,85.329,VALID,0,VALID,26.3713,VALID,302,VALID,0.271875,
2009-10-28, 01:29:04,VALID,1002.51,VALID,0,VALID,85.5198,VALID,0,VALID,26.3518,VALID,328,VALID,0.266797,
2009-10-28, 01:30:04,VALID,1002.52,VALID,0,VALID,85.6418,VALID,0,VALID,26.3108,VALID,335,VALID,0.322656,
2009-10-28, 01:31:04,VALID,1002.49,VALID,0,VALID,85.8096,VALID,0,VALID,26.2739,VALID,340,VALID,0.161719,
2009-10-28, 01:32:04,VALID,1002.52,VALID,0,VALID,85.9622,VALID,0,VALID,26.2544,VALID,340,VALID,0.0613281,
2009-10-28, 01:33:04,VALID,1002.49,VALID,0,VALID,86.0843,VALID,0,VALID,26.2154,VALID,340,VALID,0.114844,
2009-10-28, 01:34:04,VALID,1002.47,VALID,0,VALID,86.2903,VALID,0,VALID,26.1765,VALID,340,VALID,0.148047,
2009-10-28, 01:35:04,VALID,1002.49,VALID,0,VALID,86.4352,VALID,0,VALID,26.157,VALID,340,VALID,0.212109,
2009-10-28, 01:36:04,VALID,1002.47,VALID,0,VALID,86.4428,VALID,0,VALID,26.116,VALID,346,VALID,0.396094,
2009-10-28, 01:37:04,VALID,1002.46,VALID,0,VALID,86.6031,VALID,0,VALID,26.118,VALID,352,VALID,0.697266,
2009-10-28, 01:38:04,VALID,1002.46,VALID,0,VALID,86.6793,VALID,0,VALID,26.0576,VALID,5,VALID,0.866797,
2009-10-28, 01:39:04,VALID,1002.47,VALID,0,VALID,86.7785,VALID,0,VALID,26.0985,VALID,355,VALID,0.495703,
2009-10-28, 01:40:04,VALID,1002.45,VALID,0,VALID,86.809,VALID,0,VALID,26.0791,VALID,355,VALID,0.325391,
2009-10-28, 01:41:04,VALID,1002.43,VALID,0,VALID,86.8624,VALID,0,VALID,26.1005,VALID,355,VALID,0.273828,
2009-10-28, 01:42:04,VALID,1002.42,VALID,0,VALID,86.7861,VALID,0,VALID,26.0791,VALID,353,VALID,0.603516,
2009-10-28, 01:43:04,VALID,1002.39,VALID,0,VALID,86.7556,VALID,0,VALID,26.0771,VALID,351,VALID,0.852344,
2009-10-28, 01:44:04,VALID,1002.4,VALID,0,VALID,86.7175,VALID,0,VALID,26.0985,VALID,348,VALID,0.857422,
2009-10-28, 01:45:04,VALID,1002.4,VALID,0,VALID,86.6946,VALID,0,VALID,26.118,VALID,7,VALID,0.617969,
2009-10-28, 01:46:04,VALID,1002.39,VALID,0,VALID,86.7175,VALID,0,VALID,26.0985,VALID,337,VALID,0.213672,
2009-10-28, 01:47:04,VALID,1002.41,VALID,0,VALID,86.7556,VALID,0,VALID,26.0791,VALID,349,VALID,0.488672,
2009-10-28, 01:48:04,VALID,1002.43,VALID,0,VALID,86.7633,VALID,0,VALID,26.0791,VALID,350,VALID,0.557813,
2009-10-28, 01:49:04,VALID,1002.43,VALID,0,VALID,86.6793,VALID,0,VALID,26.0985,VALID,334,VALID,0.38125,
2009-10-28, 01:50:04,VALID,1002.43,VALID,0,VALID,86.6336,VALID,0,VALID,26.118,VALID,306,VALID,0.299609,
2009-10-28, 01:51:04,VALID,1002.43,VALID,0,VALID,86.6336,VALID,0,VALID,26.0771,VALID,4,VALID,1.02891,
2009-10-28, 01:52:04,VALID,1002.41,VALID,0,VALID,86.6336,VALID,0,VALID,26.118,VALID,7,VALID,0.685547,
2009-10-28, 01:53:04,VALID,1002.39,VALID,0,VALID,86.4657,VALID,0,VALID,26.116,VALID,352,VALID,0.894141,
2009-10-28, 01:54:04,VALID,1002.39,VALID,0,VALID,86.42,VALID,0,VALID,26.1375,VALID,7,VALID,0.318359,
2009-10-28, 01:55:04,VALID,1002.38,VALID,0,VALID,86.3894,VALID,0,VALID,26.157,VALID,6,VALID,0.645703,
2009-10-28, 01:56:04,VALID,1002.33,VALID,0,VALID,86.3513,VALID,0,VALID,26.157,VALID,353,VALID,0.905859,
2009-10-28, 01:57:04,VALID,1002.31,VALID,0,VALID,86.3055,VALID,0,VALID,26.157,VALID,352,VALID,0.975391,
2009-10-28, 01:58:04,VALID,1002.37,VALID,0,VALID,86.275,VALID,0,VALID,26.157,VALID,333,VALID,0.822266,
2009-10-28, 01:59:04,VALID,1002.34,VALID,0,VALID,86.2598,VALID,0,VALID,26.157,VALID,325,VALID,0.110937,
2009-10-28, 02:00:04,VALID,1002.33,VALID,0,VALID,86.3208,VALID,0,VALID,26.157,VALID,346,VALID,0.446094,
2009-10-28, 02:01:04,VALID,1002.35,VALID,0,VALID,86.3818,VALID,0,VALID,26.1375,VALID,2,VALID,1.12695,
2009-10-28, 02:02:04,VALID,1002.33,VALID,0,VALID,86.3513,VALID,0,VALID,26.1375,VALID,354,VALID,1.15508,
2009-10-28, 02:03:04,VALID,1002.32,VALID,0,VALID,86.2598,VALID,0,VALID,26.1375,VALID,334,VALID,0.967969,
2009-10-28, 02:04:04,VALID,1002.3,VALID,0,VALID,86.2674,VALID,0,VALID,26.1355,VALID,353,VALID,0.855859,
2009-10-28, 02:05:04,VALID,1002.26,VALID,0,VALID,86.336,VALID,0,VALID,26.1375,VALID,349,VALID,0.774609,
2009-10-28, 02:06:04,VALID,1002.24,VALID,0,VALID,86.4276,VALID,0,VALID,26.0985,VALID,356,VALID,0.861328,
2009-10-28, 02:07:04,VALID,1002.22,VALID,0,VALID,86.3818,VALID,0,VALID,26.1005,VALID,349,VALID,0.756641,
2009-10-28, 02:08:04,VALID,1002.23,VALID,0,VALID,86.5039,VALID,0,VALID,26.0791,VALID,336,VALID,0.434766,
2009-10-28, 02:09:04,VALID,1002.23,VALID,0,VALID,86.4886,VALID,0,VALID,26.0791,VALID,349,VALID,0.876562,
2009-10-28, 02:10:04,VALID,1002.21,VALID,0,VALID,86.4428,VALID,0,VALID,26.0985,VALID,355,VALID,1.21367,
2009-10-28, 02:11:04,VALID,1002.2,VALID,0,VALID,86.3284,VALID,0,VALID,26.118,VALID,346,VALID,0.341406,
2009-10-28, 02:12:04,VALID,1002.19,VALID,0,VALID,86.2521,VALID,0,VALID,26.1375,VALID,355,VALID,1.09648,
2009-10-28, 02:13:04,VALID,1002.21,VALID,0,VALID,86.2521,VALID,0,VALID,26.116,VALID,346,VALID,0.848828,
2009-10-28, 02:14:04,VALID,1002.21,VALID,0,VALID,86.2826,VALID,0,VALID,26.1375,VALID,358,VALID,0.766797,
2009-10-28, 02:15:04,VALID,1002.18,VALID,0,VALID,86.3055,VALID,0,VALID,26.118,VALID,346,VALID,0.933984,
2009-10-28, 02:16:04,VALID,1002.14,VALID,0,VALID,86.3513,VALID,0,VALID,26.118,VALID,355,VALID,1.34961,
2009-10-28, 02:17:04,VALID,1002.17,VALID,0,VALID,86.4123,VALID,0,VALID,26.0985,VALID,356,VALID,0.869531,
2009-10-28, 02:18:04,VALID,1002.18,VALID,0,VALID,86.5344,VALID,0,VALID,26.0596,VALID,359,VALID,0.85,
2009-10-28, 02:19:04,VALID,1002.16,VALID,0,VALID,86.5496,VALID,0,VALID,26.0401,VALID,351,VALID,0.924219,
2009-10-28, 02:20:04,VALID,1002.17,VALID,0,VALID,86.6107,VALID,0,VALID,26.0401,VALID,352,VALID,1.19766,
2009-10-28, 02:21:04,VALID,1002.17,VALID,0,VALID,86.6107,VALID,0,VALID,25.9992,VALID,344,VALID,1.01406,
2009-10-28, 02:22:04,VALID,1002.16,VALID,0,VALID,86.6717,VALID,0,VALID,26.0187,VALID,11,VALID,1.0457,
2009-10-28, 02:23:04,VALID,1002.16,VALID,0,VALID,86.5878,VALID,0,VALID,26.0206,VALID,352,VALID,1.27461,
2009-10-28, 02:24:04,VALID,1002.13,VALID,0,VALID,86.5649,VALID,0,VALID,26.0206,VALID,349,VALID,1.08516,
2009-10-28, 02:25:04,VALID,1002.17,VALID,0,VALID,86.5725,VALID,0,VALID,26.0206,VALID,345,VALID,0.862891,
2009-10-28, 02:26:04,VALID,1002.17,VALID,0,VALID,86.6336,VALID,0,VALID,26.0206,VALID,336,VALID,0.282813,
2009-10-28, 02:27:04,VALID,1002.16,VALID,0,VALID,86.7404,VALID,0,VALID,26.0012,VALID,340,VALID,0.926562,
2009-10-28, 02:28:04,VALID,1002.19,VALID,0,VALID,86.8853,VALID,0,VALID,25.9797,VALID,358,VALID,0.313281,
2009-10-28, 02:29:04,VALID,1002.18,VALID,0,VALID,86.954,VALID,0,VALID,25.9408,VALID,23,VALID,0.767578,
2009-10-28, 02:30:04,VALID,1002.19,VALID,0,VALID,87.1066,VALID,0.100563,VALID,25.9408,VALID,321,VALID,0.229687,
2009-10-28, 02:31:04,VALID,1002.16,VALID,0,VALID,87.1142,VALID,0,VALID,25.9018,VALID,345,VALID,0.276172,
2009-10-28, 02:32:04,VALID,1002.15,VALID,0,VALID,87.221,VALID,0.100563,VALID,25.9038,VALID,33,VALID,0.226563,
2009-10-28, 02:33:04,VALID,1002.15,VALID,0,VALID,87.427,VALID,0,VALID,25.8434,VALID,26,VALID,0.174609,
2009-10-28, 02:34:04,VALID,1002.16,VALID,0,VALID,87.5567,VALID,0,VALID,25.8239,VALID,24,VALID,0.235547,
2009-10-28, 02:35:04,VALID,1002.16,VALID,0,VALID,87.6253,VALID,0.100563,VALID,25.7635,VALID,328,VALID,0.248828,
2009-10-28, 02:36:04,VALID,1002.16,VALID,0,VALID,87.7169,VALID,0.100563,VALID,25.746,VALID,342,VALID,0.291016,
2009-10-28, 02:37:04,VALID,1002.13,VALID,0,VALID,87.755,VALID,0.100563,VALID,25.7246,VALID,344,VALID,0.471484,
2009-10-28, 02:38:04,VALID,1002.16,VALID,0,VALID,87.7855,VALID,0.100563,VALID,25.7051,VALID,293,VALID,0.636328,
2009-10-28, 02:39:04,VALID,1002.14,VALID,0,VALID,87.8237,VALID,0.100563,VALID,25.7051,VALID,341,VALID,0.292578,
2009-10-28, 02:40:04,VALID,1002.13,VALID,0,VALID,87.8466,VALID,0.100563,VALID,25.6876,VALID,341,VALID,1.05391,
2009-10-28, 02:41:04,VALID,1002.13,VALID,0,VALID,87.816,VALID,0.100563,VALID,25.6876,VALID,352,VALID,1.2168,
2009-10-28, 02:42:04,VALID,1002.09,VALID,0,VALID,87.7474,VALID,0,VALID,25.6876,VALID,334,VALID,0.329688,
2009-10-28, 02:43:04,VALID,1002.08,VALID,0,VALID,87.6787,VALID,0,VALID,25.6895,VALID,332,VALID,0.941016,
2009-10-28, 02:44:04,VALID,1002.08,VALID,0,VALID,87.6406,VALID,0,VALID,25.6895,VALID,1,VALID,0.678516,
2009-10-28, 02:45:04,VALID,1002.1,VALID,0,VALID,87.6024,VALID,0,VALID,25.67,VALID,359,VALID,0.383984,
2009-10-28, 02:46:04,VALID,1002.06,VALID,0,VALID,87.5872,VALID,0,VALID,25.67,VALID,27,VALID,0.682813,
2009-10-28, 02:47:04,VALID,1002.07,VALID,0,VALID,87.5948,VALID,0,VALID,25.6486,VALID,360,VALID,0.641797,
2009-10-28, 02:48:04,VALID,1002.07,VALID,0,VALID,87.549,VALID,0,VALID,25.6292,VALID,339,VALID,0.816797,
2009-10-28, 02:49:04,VALID,1002.09,VALID,0,VALID,87.4956,VALID,0,VALID,25.6506,VALID,353,VALID,0.969922,
2009-10-28, 02:50:04,VALID,1002.09,VALID,0,VALID,87.5033,VALID,0,VALID,25.6486,VALID,349,VALID,0.773438,
2009-10-28, 02:51:04,VALID,1002.1,VALID,0,VALID,87.3583,VALID,0,VALID,25.6486,VALID,339,VALID,0.787109,
2009-10-28, 02:52:04,VALID,1002.09,VALID,0,VALID,87.2439,VALID,0,VALID,25.6506,VALID,1,VALID,0.566406,
2009-10-28, 02:53:04,VALID,1002.12,VALID,0,VALID,87.16,VALID,0,VALID,25.67,VALID,300,VALID,0.482812,
2009-10-28, 02:54:04,VALID,1002.14,VALID,0,VALID,87.1066,VALID,0,VALID,25.6486,VALID,328,VALID,0.876562,
2009-10-28, 02:55:04,VALID,1002.14,VALID,0,VALID,87.0989,VALID,0,VALID,25.6506,VALID,353,VALID,1.18203,
2009-10-28, 02:56:04,VALID,1002.16,VALID,0,VALID,87.0684,VALID,0,VALID,25.6486,VALID,343,VALID,0.330078,
2009-10-28, 02:57:04,VALID,1002.13,VALID,0,VALID,87.015,VALID,0,VALID,25.6292,VALID,350,VALID,1.17813,
2009-10-28, 02:58:04,VALID,1002.15,VALID,0,VALID,86.8624,VALID,0,VALID,25.6311,VALID,2,VALID,1.07422,
2009-10-28, 02:59:04,VALID,1002.15,VALID,0,VALID,86.7251,VALID,0,VALID,25.6097,VALID,354,VALID,1.18672,
2009-10-28, 03:00:04,VALID,1002.16,VALID,0,VALID,86.6641,VALID,0,VALID,25.6292,VALID,355,VALID,0.666797,
2009-10-28, 03:01:04,VALID,1002.15,VALID,0,VALID,86.748,VALID,0,VALID,25.6311,VALID,357,VALID,0.65625,
2009-10-28, 03:02:04,VALID,1002.14,VALID,0,VALID,86.8853,VALID,0,VALID,25.6116,VALID,350,VALID,0.701172,
2009-10-28, 03:03:04,VALID,1002.18,VALID,0,VALID,87.0379,VALID,0,VALID,25.5727,VALID,358,VALID,0.530078,
2009-10-28, 03:04:04,VALID,1002.17,VALID,0,VALID,87.1676,VALID,0,VALID,25.5337,VALID,358,VALID,0.3,
2009-10-28, 03:05:04,VALID,1002.17,VALID,0,VALID,87.282,VALID,0,VALID,25.4948,VALID,358,VALID,0.28125,
2009-10-28, 03:06:04,VALID,1002.19,VALID,0,VALID,87.4804,VALID,0,VALID,25.4539,VALID,358,VALID,0,
2009-10-28, 03:07:04,VALID,1002.18,VALID,0,VALID,87.5948,VALID,0,VALID,25.4363,VALID,358,VALID,0.111719,
2009-10-28, 03:08:04,VALID,1002.19,VALID,0,VALID,87.7092,VALID,0,VALID,25.3974,VALID,360,VALID,0.438672,
2009-10-28, 03:09:04,VALID,1002.21,VALID,0,VALID,87.9,VALID,0,VALID,25.3565,VALID,360,VALID,0.276563,
2009-10-28, 03:10:04,VALID,1002.23,VALID,0,VALID,88.0373,VALID,0,VALID,25.3195,VALID,360,VALID,0.190234,
2009-10-28, 03:11:04,VALID,1002.23,VALID,0,VALID,88.0678,VALID,0,VALID,25.3,VALID,360,VALID,0.0269531,
2009-10-28, 03:12:04,VALID,1002.2,VALID,0,VALID,88.1975,VALID,0,VALID,25.2397,VALID,360,VALID,0.129297,
2009-10-28, 03:13:04,VALID,1002.23,VALID,0,VALID,88.3806,VALID,0,VALID,25.2221,VALID,360,VALID,0.164063,
2009-10-28, 03:14:04,VALID,1002.2,VALID,0,VALID,88.5713,VALID,0,VALID,25.1832,VALID,360,VALID,0,
2009-10-28, 03:15:04,VALID,1002.23,VALID,0,VALID,88.7468,VALID,0,VALID,25.1442,VALID,360,VALID,0.116016,
2009-10-28, 03:16:04,VALID,1002.24,VALID,0,VALID,88.9222,VALID,0,VALID,25.1053,VALID,360,VALID,0,
2009-10-28, 03:17:04,VALID,1002.25,VALID,0,VALID,89.113,VALID,0,VALID,25.045,VALID,360,VALID,0,
2009-10-28, 03:18:04,VALID,1002.29,VALID,0,VALID,89.2426,VALID,0,VALID,25.006,VALID,360,VALID,0.266406,
2009-10-28, 03:19:04,VALID,1002.29,VALID,0,VALID,89.4257,VALID,0,VALID,24.9671,VALID,360,VALID,0.243359,
2009-10-28, 03:20:04,VALID,1002.28,VALID,0,VALID,89.5554,VALID,0,VALID,24.9087,VALID,360,VALID,0.290234,
2009-10-28, 03:21:04,VALID,1002.3,VALID,0,VALID,89.7309,VALID,0,VALID,24.8697,VALID,360,VALID,0.354688,
2009-10-28, 03:22:04,VALID,1002.32,VALID,0,VALID,89.8911,VALID,0,VALID,24.8503,VALID,360,VALID,0.328906,
2009-10-28, 03:23:04,VALID,1002.33,VALID,0,VALID,89.9292,VALID,0,VALID,24.7919,VALID,360,VALID,0.304688,
2009-10-28, 03:24:04,VALID,1002.35,VALID,0,VALID,89.9598,VALID,0,VALID,24.7724,VALID,360,VALID,0.407422,
2009-10-28, 03:25:04,VALID,1002.34,VALID,0,VALID,90.0055,VALID,0,VALID,24.7724,VALID,358,VALID,0.492969,
2009-10-28, 03:26:04,VALID,1002.36,VALID,0,VALID,90.0055,VALID,0,VALID,24.7937,VALID,356,VALID,0.422266,
2009-10-28, 03:27:04,VALID,1002.4,VALID,0,VALID,89.8987,VALID,0.100563,VALID,24.8113,VALID,354,VALID,0.438281,
2009-10-28, 03:28:04,VALID,1002.34,VALID,0,VALID,89.7919,VALID,0,VALID,24.79,VALID,322,VALID,0.39375,
2009-10-28, 03:29:04,VALID,1002.36,VALID,0,VALID,89.7461,VALID,0,VALID,24.8113,VALID,322,VALID,0.246094,
2009-10-28, 03:30:04,VALID,1002.39,VALID,0,VALID,89.7385,VALID,0,VALID,24.8113,VALID,322,VALID,0,
2009-10-28, 03:31:04,VALID,1002.41,VALID,0,VALID,89.7156,VALID,0,VALID,24.8327,VALID,322,VALID,0,
2009-10-28, 03:32:04,VALID,1002.42,VALID,0,VALID,89.7385,VALID,0,VALID,24.8308,VALID,322,VALID,0,
2009-10-28, 03:33:04,VALID,1002.44,VALID,0,VALID,89.6851,VALID,0,VALID,24.8308,VALID,322,VALID,0.386719,
2009-10-28, 03:34:04,VALID,1002.43,VALID,0,VALID,89.5325,VALID,0,VALID,24.8308,VALID,334,VALID,0.499219,
2009-10-28, 03:35:04,VALID,1002.47,VALID,0,VALID,89.4639,VALID,0,VALID,24.8503,VALID,334,VALID,0.412891,
2009-10-28, 03:36:04,VALID,1002.49,VALID,0,VALID,89.4715,VALID,0,VALID,24.8308,VALID,337,VALID,0.426953,
2009-10-28, 03:37:04,VALID,1002.47,VALID,0,VALID,89.5097,VALID,0,VALID,24.8522,VALID,337,VALID,0.248828,
2009-10-28, 03:38:04,VALID,1002.48,VALID,0,VALID,89.5554,VALID,0,VALID,24.8113,VALID,337,VALID,0,
2009-10-28, 03:39:04,VALID,1002.5,VALID,0,VALID,89.5936,VALID,0,VALID,24.7919,VALID,337,VALID,0,
2009-10-28, 03:40:04,VALID,1002.49,VALID,0,VALID,89.6317,VALID,0,VALID,24.7724,VALID,337,VALID,0,
2009-10-28, 03:41:04,VALID,1002.51,VALID,0,VALID,89.7461,VALID,0,VALID,24.7529,VALID,337,VALID,0.283594,
2009-10-28, 03:42:04,VALID,1002.52,VALID,0,VALID,89.8682,VALID,0,VALID,24.7335,VALID,337,VALID,0,
2009-10-28, 03:43:04,VALID,1002.54,VALID,0,VALID,89.8758,VALID,0,VALID,24.7335,VALID,337,VALID,0,
2009-10-28, 03:44:04,VALID,1002.51,VALID,0,VALID,89.8758,VALID,0.100563,VALID,24.7529,VALID,337,VALID,0.305078,
2009-10-28, 03:45:04,VALID,1002.55,VALID,0,VALID,89.8148,VALID,0.100563,VALID,24.714,VALID,337,VALID,0.249219,